Perryton, Texas, United States (79070)
Lat: 36.40N, Lon: 100.8W
Wx Zone: TXZ004
Local Info
Past Weather Observations for Today

NOTE: This archive is for the closest National Weather Service station to Perryton. Information may differ from the station used for current weather conditions.

Click here for Long-term Archive

Time Weather Temperature Dewpoint Humidity Pressure Winds Precip Visibility
12:35
Clear
55°F / 13°C 32°F / 0°C 41% 30.21 in
(1023 mb)
Calm - 10SM
12:15
Clear
55°F / 13°C 32°F / 0°C 41% 30.21 in
(1023 mb)
NE 3.5 mph
(NE 6 kph)
- 10SM
11:55
Clear
54°F / 12°C 32°F / 0°C 44% 30.21 in
(1023 mb)
Calm - 10SM
11:35
Clear
52°F / 11°C 32°F / 0°C 47% 30.24 in
(1024 mb)
N 3.5 mph
(N 6 kph)
- 10SM
11:15
Clear
50°F / 10°C 32°F / 0°C 50% 30.24 in
(1024 mb)
Calm - 10SM
10:55
Clear
48°F / 9°C 32°F / 0°C 54% 30.24 in
(1024 mb)
Calm - 10SM
10:35
Clear
48°F / 9°C 32°F / 0°C 54% 30.24 in
(1024 mb)
Calm - 10SM
10:15
Clear
46°F / 8°C 32°F / 0°C 57% 30.24 in
(1024 mb)
Calm - 10SM
09:55
Clear
45°F / 7°C 32°F / 0°C 61% 30.24 in
(1024 mb)
Calm - 10SM
09:35
Clear
43°F / 6°C 32°F / 0°C 66% 30.24 in
(1024 mb)
NW 3.5 mph
(NW 6 kph)
- 10SM
09:15
Clear
41°F / 5°C 32°F / 0°C 70% 30.21 in
(1023 mb)
Calm - 10SM
08:55
Clear
37°F / 3°C 30°F / -1°C 75% 30.21 in
(1023 mb)
Calm - 10SM
08:35
Clear
36°F / 2°C 30°F / -1°C 81% 30.21 in
(1023 mb)
Calm - 10SM
08:15
Clear
30°F / -1°C 27°F / -3°C 86% 30.18 in
(1022 mb)
W 3.5 mph
(W 6 kph)
- 10SM
07:55
Clear
32°F / 0°C 27°F / -3°C 80% 30.18 in
(1022 mb)
Calm - 10SM
07:35
Clear
32°F / 0°C 27°F / -3°C 80% 30.18 in
(1022 mb)
S 3.5 mph
(S 6 kph)
- 10SM
07:15
Clear
36°F / 2°C 28°F / -2°C 75% 30.18 in
(1022 mb)
Calm - 10SM
06:55
Clear
37°F / 3°C 28°F / -2°C 70% 30.18 in
(1022 mb)
N 3.5 mph
(N 6 kph)
- 10SM
06:35
Clear
39°F / 4°C 28°F / -2°C 65% 30.18 in
(1022 mb)
N 5.8 mph
(N 9 kph)
- 10SM
06:15
Clear
39°F / 4°C 28°F / -2°C 65% 30.18 in
(1022 mb)
N 3.5 mph
(N 6 kph)
- 10SM
05:55
Clear
41°F / 5°C 27°F / -3°C 57% 30.15 in
(1021 mb)
NNW 3.5 mph
(NNW 6 kph)
- 10SM
05:35
Clear
41°F / 5°C 27°F / -3°C 57% 30.15 in
(1021 mb)
Calm - 10SM
05:15
Clear
41°F / 5°C 27°F / -3°C 57% 30.15 in
(1021 mb)
Calm - 10SM
04:55
Clear
37°F / 3°C 25°F / -4°C 60% 30.12 in
(1020 mb)
Calm - 10SM
04:35
Clear
39°F / 4°C 25°F / -4°C 56% 30.12 in
(1020 mb)
Calm - 10SM
04:15
Clear
36°F / 2°C 25°F / -4°C 65% 30.12 in
(1020 mb)
Calm - 10SM
03:55
Clear
34°F / 1°C 23°F / -5°C 65% 30.12 in
(1020 mb)
Calm - 10SM
03:35
Clear
34°F / 1°C 23°F / -5°C 65% 30.12 in
(1020 mb)
Calm - 10SM
03:15
Clear
34°F / 1°C 23°F / -5°C 65% 30.09 in
(1019 mb)
Calm - 10SM
02:55
Clear
32°F / 0°C 21°F / -6°C 64% 30.09 in
(1019 mb)
Calm - 10SM
02:35
Clear
32°F / 0°C 21°F / -6°C 64% 30.09 in
(1019 mb)
Calm - 10SM
02:15
Clear
32°F / 0°C 21°F / -6°C 64% 30.09 in
(1019 mb)
SW 4.6 mph
(SW 7 kph)
- 10SM
01:55
Clear
30°F / -1°C 19°F / -7°C 64% 30.09 in
(1019 mb)
SW 3.5 mph
(SW 6 kph)
- 10SM
01:35
Clear
32°F / 0°C 19°F / -7°C 60% 30.06 in
(1018 mb)
SSE 4.6 mph
(SSE 7 kph)
- 10SM
01:15
Clear
32°F / 0°C 19°F / -7°C 60% 30.06 in
(1018 mb)
SW 3.5 mph
(SW 6 kph)
- 10SM
00:55
Clear
32°F / 0°C 19°F / -7°C 60% 30.06 in
(1018 mb)
SSE 4.6 mph
(SSE 7 kph)
- 10SM
00:35
Clear
36°F / 2°C 18°F / -8°C 48% 30.06 in
(1018 mb)
Calm - 10SM
00:15
Clear
37°F / 3°C 19°F / -7°C 48% 30.06 in
(1018 mb)
Calm - 10SM
Time Weather Temperature Dewpoint Humidity Pressure Winds Precip Visibility


Weather for websites

WeatherForYou.com, LLC is not responsible for any damages or problems caused by this service. Current weather conditions are obtained from the closest station including government and personal stations which may have varying degrees of accuracy. Weather forecasts are derived from the NOAA NDFD. Like all things, this site belongs to Jesus Christ... He just trusts us to maintain it. If you have any questions or comments email webmaster@weatherforyou.com

Copyright © 2016, WeatherForYou.com LLC. All rights reserved.